[[{"header":{"parameterUnit":"m.s-1","parameterCategory":1,"la1":30.2991,"la2":30.254,"lo1":-89.0895,"lo2":-89.0444,"dy":0.0017,"dx":0.0017,"nx":28,"ny":28,"refTime":"2026-01-02T03:00:00:Z","depth":0,"parameterNumber":2,"parameterNumberName":"U-component_of_WINDS"},"data":[0,0,0,0,0,0,0,0,0,0,0,0,0,0,0,0,0,0,0,0,0,0,0,0,0,0,0,0,0,0,0,0,0,0,0,0,0,0,0,0,0,0,0,0,0,0,0,0,0,0,0,0,0,0,0,0,0,0,1.7695,1.7697,0,1.784,1.7841,1.7843,1.7855,1.7854,1.7852,1.7851,1.8001,1.8006,1.8012,0,0,0,0,0,0,0,0,0,0,0,0,0,1.7433,1.7438,1.7695,1.7697,1.7699,1.7839,1.7841,1.7843,1.7855,1.7854,1.7852,1.785,1.7999,1.8006,1.8012,0,0,0,0,0,0,0,0,0,0,0,0,0,1.7559,1.7439,1.7695,1.7722,1.7725,1.7839,1.7841,1.7844,1.7856,1.7853,1.7851,1.7849,1.7997,1.8005,1.8013,1.811,0,0,1.8038,1.8042,0,0,0,0,0,0,0,0,1.7552,1.7569,1.7716,1.772,1.7725,1.7827,1.7804,1.7933,1.7856,1.7806,1.7851,1.7848,1.7945,1.7957,1.799,1.8117,1.8124,1.8039,1.8044,1.8047,1.805,0,0,0,0,0,0,0,1.7543,1.7562,1.7752,1.7718,1.7723,1.7727,1.7743,1.7829,1.7887,1.7811,1.7812,1.7829,1.7947,1.7982,1.7993,1.8126,1.8039,1.8046,1.8051,1.8054,1.8341,1.8344,0,0,0,0,0,0,1.7529,1.7555,1.7748,1.7757,1.7631,1.7734,1.7751,1.7796,1.7886,1.7898,1.783,1.7829,1.7969,1.7984,1.7999,1.8118,1.8047,1.8055,1.806,1.8338,1.8342,1.8344,0,0,0,0,0,0,1.7523,1.7546,1.7742,1.7656,1.7681,1.7741,1.7792,1.7801,1.7835,1.7901,1.7912,1.7855,1.7968,1.7987,1.8082,1.8123,1.8059,1.8066,1.8335,1.8339,1.8343,1.8357,0,0,0,0,0,0,1.7516,1.7544,1.758,1.7657,1.7686,1.7822,1.7794,1.7805,1.7849,1.7848,1.7927,1.7938,1.7967,1.807,1.809,1.8133,1.8072,1.8332,1.8337,1.8342,1.8353,1.8361,1.8368,0,0,0,0,0,1.7506,1.7579,1.7582,1.7605,1.7733,1.7824,1.7841,1.7873,1.7852,1.789,1.7933,1.7935,1.8116,1.808,1.8103,1.8149,1.8329,1.8335,1.8341,1.835,1.8359,1.8368,0,0,0,0,0,0,1.7506,1.759,1.7594,1.7694,1.7752,1.7826,1.7875,1.7882,1.7948,1.7944,1.7982,1.7999,1.8093,1.8131,1.8089,1.8248,1.822,1.8231,1.8219,1.8229,1.8236,1.8224,1.8079,0,0,0,0,0,1.7518,1.7584,1.7654,1.7735,1.7764,1.7815,1.7856,1.7875,1.7937,1.7962,1.8011,1.8072,1.8143,1.8188,1.8257,1.8359,1.8377,1.8403,1.841,1.8416,1.8424,1.8481,1.8493,1.8364,1.8364,1.8364,0,0,1.7543,1.7596,1.7636,1.7737,1.7784,1.7853,1.7835,1.7908,1.796,1.7973,1.8065,1.8104,1.8175,1.8274,1.832,1.8308,1.8464,1.8423,1.8427,1.8433,1.8489,1.8501,1.8511,1.8369,1.8368,1.8367,0,0,1.7622,1.767,1.7743,1.779,1.7862,1.7895,1.7913,1.7987,1.8012,1.8106,1.8117,1.818,1.83,1.835,1.8391,1.8491,1.8496,1.8512,1.855,1.8605,1.8615,1.8624,1.8659,1.8671,1.8521,1.8521,1.8521,0,1.7644,1.7747,1.7779,1.7852,1.7896,1.7911,1.7986,1.8031,1.8122,1.8152,1.8138,1.8289,1.8338,1.8449,1.8473,1.8506,1.8527,1.8502,1.8611,1.862,1.8629,1.8663,1.8676,1.8522,1.8522,1.8522,1.8522,0,1.7769,1.7841,1.7891,1.7977,1.8027,1.8101,1.8145,1.8192,1.8208,1.8243,1.8338,1.8397,1.8478,1.8506,1.8522,1.8619,1.861,1.8603,1.8576,1.8642,1.8674,1.8688,1.8524,1.8524,1.8524,1.8523,0,0,1.7851,1.7955,1.7973,1.8012,1.8093,1.8149,1.8224,1.8302,1.8341,1.8404,1.8468,1.857,1.8564,1.8611,1.8633,1.8682,1.8756,1.8669,1.8671,1.8682,1.8866,1.8869,1.8883,1.8761,1.8763,1.8765,1.886,0,1.7938,1.807,1.8102,1.8215,1.8281,1.8298,1.8363,1.842,1.8455,1.8518,1.8557,1.8628,1.8616,1.8644,1.8693,1.8736,1.8793,1.873,1.882,1.8823,1.8799,1.89,1.8904,1.899,1.8872,1.8875,1.8876,0,1.8057,1.8122,1.8241,1.8313,1.8342,1.84,1.8474,1.8534,1.86,1.8622,1.8674,1.8692,1.8771,1.8742,1.8852,1.8808,1.8847,1.8875,1.8879,1.8887,1.8852,1.891,1.9018,1.903,1.8897,1.8895,1.8893,0,1.8103,1.822,1.8306,1.834,1.8427,1.8467,1.8505,1.8569,1.8614,1.868,1.8709,1.8784,1.8824,1.8882,1.892,1.8895,1.9026,1.9,1.9047,1.9046,1.9072,1.907,1.9187,1.91,1.91,1.91,1.91,0,1.8196,1.8268,1.8328,1.8381,1.8462,1.85,1.858,1.8619,1.8675,1.8736,1.8757,1.8814,1.8861,1.8925,1.8956,1.9042,1.9061,1.9081,1.9088,1.9078,1.9075,1.9103,1.9097,1.9103,1.9103,1.9102,1.9101,0,1.826,1.8303,1.8398,1.8473,1.8494,1.855,1.8615,1.8667,1.8704,1.8781,1.8802,1.8859,1.8936,1.898,1.9077,1.9097,1.9192,1.9197,1.9169,1.9172,1.9216,1.921,1.9353,1.9373,1.9275,1.9276,1.9276,0,1.8315,1.8371,1.8452,1.8494,1.8533,1.86,1.8646,1.8686,1.8734,1.8813,1.8856,1.8934,1.8998,1.912,1.9171,1.9245,1.9251,1.9296,1.9262,1.9251,1.925,1.9246,1.9251,1.9301,1.9302,1.9303,1.9303,0,1.8409,1.8427,1.8492,1.8565,1.8619,1.8679,1.8738,1.8772,1.8822,1.8874,1.8952,1.9002,1.9101,1.9178,1.9257,1.9297,1.9309,1.9314,1.9328,1.9318,1.9299,1.9308,1.9183,1.931,1.9309,1.9309,1.9308,1.9308,1.8469,1.8519,1.8584,1.8656,1.8704,1.876,1.8812,1.8855,1.8921,1.9004,1.9024,1.9106,1.9172,1.9279,1.9322,1.9387,1.9379,1.94,1.9405,1.941,1.941,1.929,1.9402,1.9402,1.9402,1.9402,1.9401,0,1.8562,1.8604,1.867,1.8752,1.8809,1.8815,1.8882,1.8929,1.9,1.9061,1.9123,1.9213,1.9288,1.9346,1.9423,1.9464,1.9471,1.9483,1.9479,1.9488,1.9414,1.9392,1.9476,1.9476,1.9476,1.9476,1.9476,1.9476,1.8616,1.8701,1.8728,1.8838,1.8881,1.896,1.8997,1.9049,1.9097,1.9196,1.9258,1.9295,1.9354,1.9436,1.9505,1.9521,1.9547,1.9558,1.9573,1.9502,1.9494,1.9486,1.9466,1.9564,1.9564,1.9643,1.9643,1.9644]},{"header":{"parameterUnit":"m.s-1","parameterCategory":1,"la1":30.2991,"la2":30.254,"lo1":-89.0895,"lo2":-89.0444,"dy":0.0017,"dx":0.0017,"nx":28,"ny":28,"refTime":"2026-01-02T03:00:00:Z","depth":0,"parameterNumber":3,"parameterNumberName":"V-component_of_WINDS"},"data":[0,0,0,0,0,0,0,0,0,0,0,0,0,0,0,0,0,0,0,0,0,0,0,0,0,0,0,0,0,0,0,0,0,0,0,0,0,0,0,0,0,0,0,0,0,0,0,0,0,0,0,0,0,0,0,0,0,0,2.1058,2.1058,0,2.1058,2.1058,2.1058,2.1019,2.1018,2.1017,2.1016,2.1016,2.1017,2.1018,0,0,0,0,0,0,0,0,0,0,0,0,0,2.1022,2.1023,2.1058,2.1058,2.1058,2.1058,2.1058,2.1058,2.102,2.1018,2.1017,2.1016,2.1016,2.1017,2.1018,0,0,0,0,0,0,0,0,0,0,0,0,0,2.1032,2.1024,2.1058,2.1039,2.1037,2.1058,2.1058,2.1058,2.102,2.1018,2.1017,2.1015,2.1015,2.1017,2.1018,2.1058,0,0,2.1022,2.1023,0,0,0,0,0,0,0,0,2.1031,2.1033,2.1042,2.104,2.1038,2.1037,2.1046,2.1058,2.102,2.1026,2.1016,2.1015,2.1024,2.1025,2.1028,2.1058,2.1058,2.1022,2.1023,2.1024,2.1024,0,0,0,0,0,0,0,2.1031,2.1033,2.1058,2.1042,2.104,2.103,2.1029,2.1048,2.1034,2.1026,2.1023,2.1023,2.1023,2.1027,2.1028,2.1058,2.1022,2.1024,2.1025,2.1025,2.112,2.1121,0,0,0,0,0,0,2.1033,2.1033,2.1058,2.1058,2.1031,2.1032,2.1031,2.1039,2.1034,2.1031,2.1025,2.1022,2.1025,2.1026,2.1028,2.1074,2.1024,2.1025,2.1026,2.1118,2.112,2.1122,0,0,0,0,0,0,2.1032,2.1036,2.1058,2.1045,2.1047,2.1034,2.1043,2.104,2.1044,2.1033,2.103,2.1032,2.1024,2.1026,2.1051,2.1073,2.1026,2.1027,2.1116,2.1119,2.1121,2.1167,0,0,0,0,0,0,2.1031,2.1036,2.1051,2.1045,2.1048,2.1081,2.1044,2.1041,2.1047,2.1042,2.1038,2.1036,2.1023,2.1049,2.1052,2.1074,2.1028,2.1114,2.1117,2.112,2.1163,2.1171,2.1177,0,0,0,0,0,2.103,2.1063,2.1052,2.1055,2.1066,2.1083,2.1084,2.1068,2.1049,2.1064,2.1057,2.1036,2.107,2.1052,2.1055,2.1078,2.1112,2.1116,2.112,2.116,2.1169,2.1177,0,0,0,0,0,0,2.1072,2.1062,2.1049,2.1082,2.1084,2.1076,2.1095,2.1078,2.1085,2.1081,2.1061,2.106,2.1089,2.1086,2.1065,2.1116,2.1088,2.1092,2.1117,2.1126,2.1132,2.1133,2.1029,0,0,0,0,0,2.1085,2.1099,2.109,2.1119,2.1121,2.1108,2.1114,2.1102,2.1103,2.1103,2.1098,2.1099,2.111,2.1118,2.1127,2.1162,2.1161,2.118,2.1187,2.1193,2.1197,2.1216,2.1224,2.1134,2.1134,2.1134,0,0,2.1111,2.1108,2.1118,2.1128,2.1128,2.1143,2.1109,2.1126,2.1137,2.1106,2.1129,2.1125,2.1125,2.1156,2.1169,2.1154,2.1221,2.1197,2.1202,2.1203,2.122,2.1229,2.1236,2.1137,2.1136,2.1136,0,0,2.1168,2.1167,2.1192,2.1192,2.1193,2.1184,2.119,2.1185,2.1181,2.1204,2.1181,2.1194,2.1213,2.1214,2.1217,2.1274,2.1256,2.1277,2.1313,2.1332,2.1339,2.1345,2.1366,2.1373,2.1282,2.1282,2.1282,0,2.1201,2.1223,2.1206,2.1225,2.123,2.1203,2.1227,2.1229,2.1232,2.1236,2.1219,2.1243,2.1241,2.1271,2.1285,2.1288,2.1295,2.1278,2.1339,2.1345,2.1351,2.137,2.1378,2.1284,2.1284,2.1284,2.1284,0,2.1264,2.128,2.13,2.1304,2.1311,2.1333,2.1319,2.1327,2.1315,2.1307,2.1331,2.1328,2.1336,2.1342,2.133,2.1371,2.1362,2.1343,2.1314,2.1362,2.138,2.1388,2.1288,2.1287,2.1287,2.1286,0,0,2.1347,2.1342,2.1349,2.1351,2.1349,2.1361,2.1381,2.139,2.1398,2.1401,2.1418,2.1435,2.1417,2.142,2.1407,2.1424,2.1469,2.1402,2.1402,2.1415,2.1515,2.153,2.1539,2.1457,2.1459,2.146,2.1515,0,2.1402,2.1437,2.1422,2.1459,2.1473,2.1447,2.1465,2.1466,2.1459,2.147,2.1463,2.1476,2.1451,2.1453,2.1468,2.1461,2.1489,2.1456,2.1472,2.1473,2.1474,2.1548,2.1564,2.1616,2.1522,2.1523,2.1524,0,2.1471,2.1478,2.1516,2.1512,2.1517,2.1533,2.154,2.1551,2.1551,2.1545,2.1549,2.1533,2.1552,2.1523,2.155,2.1528,2.1534,2.1531,2.1533,2.1534,2.1502,2.1551,2.1632,2.164,2.1535,2.1534,2.1533,0,2.1528,2.1546,2.1571,2.1574,2.1569,2.1582,2.158,2.1579,2.1585,2.1591,2.1594,2.1602,2.1607,2.1613,2.1599,2.1579,2.1627,2.1597,2.1623,2.1624,2.1635,2.1634,2.1718,2.1638,2.1638,2.1638,2.1638,0,2.1592,2.1616,2.1597,2.1613,2.1639,2.1621,2.1648,2.1644,2.1643,2.1657,2.1635,2.1648,2.1629,2.164,2.163,2.1653,2.1655,2.1651,2.1648,2.1653,2.1654,2.1657,2.1653,2.164,2.1639,2.1639,2.1639,0,2.166,2.1648,2.1674,2.1668,2.1667,2.1687,2.1681,2.1695,2.1687,2.1705,2.1709,2.1696,2.1709,2.1696,2.1707,2.17,2.1732,2.1723,2.1732,2.173,2.1757,2.1754,2.1845,2.1857,2.1769,2.177,2.1771,0,2.1701,2.1719,2.1715,2.1723,2.1724,2.1737,2.1743,2.1726,2.1734,2.1735,2.1749,2.176,2.1768,2.1789,2.1781,2.1789,2.1781,2.1812,2.1782,2.1787,2.1782,2.1781,2.1783,2.1819,2.182,2.182,2.1821,0,2.1776,2.1769,2.1779,2.1787,2.1796,2.1801,2.1805,2.1813,2.1795,2.1805,2.1817,2.1823,2.1835,2.1846,2.1853,2.1851,2.1833,2.1831,2.1837,2.1843,2.1848,2.1846,2.1749,2.1829,2.1828,2.1827,2.1827,2.1827,2.1832,2.1847,2.1847,2.1859,2.186,2.1864,2.1877,2.1871,2.1881,2.189,2.1879,2.1895,2.1895,2.1902,2.1902,2.1914,2.1901,2.191,2.1912,2.1915,2.1919,2.1845,2.1915,2.1915,2.1914,2.1914,2.1914,0,2.1905,2.1904,2.1915,2.1922,2.1931,2.1914,2.1917,2.1926,2.194,2.1942,2.195,2.1965,2.1975,2.1968,2.1977,2.1988,2.198,2.1991,2.199,2.199,2.1931,2.1924,2.1997,2.1997,2.1997,2.1997,2.1997,2.1997,2.1945,2.197,2.1963,2.1988,2.1986,2.2002,2.2005,2.2009,2.201,2.2028,2.2037,2.2032,2.203,2.2039,2.2048,2.2045,2.205,2.2063,2.2058,2.2003,2.1994,2.1987,2.1981,2.2064,2.2065,2.2117,2.2117,2.2118]}]]